Location: Newark
(52.6000°N, 1.6000°W)
Time: 23:06:54
(UTC+00:00)

ISS - Visible Passes

Search period start: 01 April 2020 00:00
Search period end: 11 April 2020 00:00
Orbit: 416 x 423 km, 51.6° (Epoch: 02 April)

Date Brightness Start Highest point End Pass type
(mag) Time Alt. Az. Time Alt. Az. Time Alt. Az.
01 Apr -1.9 20:34:21 10° W 20:36:57 21° SSW 20:37:45 19° SSW visible
02 Apr -2.3 19:46:45 10° W 19:49:42 28° SSW 19:52:19 12° SSE visible
03 Apr -1.0 20:37:55 10° SW 20:38:28 10° SW 20:39:02 10° SSW visible
04 Apr -1.2 19:49:16 10° WSW 19:51:16 15° SW 19:53:17 10° S visible
